This demonstration page uses our WeatherBlox Daily Observations layout. Learn more.

36.17497, -115.13722

Hourly Observations for April 5, 2015

Temp ( °F °C ) Dew Point ( °F °C ) Humidity (%) Winds ( mph kmh ) Pressure ( in mb ) Visibility ( mi km ) Precip ( " mm )
12:53 am 00:53 Clear 67 19.4 6 -14.4 9 9 S 12 19 29.77 1008 10 16.0934 0 0
1:53 am 01:53 Clear 67 19.4 11 -11.7 11 11 W 8 13 29.76 1008 10 16.0934 0 0
2:53 am 02:53 Clear 67 19.4 14 -10 13 13 SSW 12 19 29.74 1007 10 16.0934 0 0
3:53 am 03:53 Clear 64 17.8 14 -10 14 14 S 15 24 29.73 1007 10 16.0934 0 0
4:53 am 04:53 Clear 64 17.8 12 -11.1 13 13 SSW 14 22 29.72 1006 10 16.0934 0 0
5:53 am 05:53 Clear 61 16.1 12 -11.1 14 14 S 15 24 29.72 1007 10 16.0934 0 0
6:53 am 06:53 Sunny 63 17.2 10 -12.2 12 12 S 16 26 29.73 1007 10 16.0934 0 0
7:53 am 07:53 Sunny 64 17.8 9 -12.8 11 11 S 16 26 29.75 1007 10 16.0934 0 0
8:53 am 08:53 Sunny 67 19.4 10 -12.2 11 11 SSW 16 26 29.75 1007 10 16.0934 0 0
9:53 am 09:53 Sunny 70 21.1 9 -12.8 9 9 SSW 18 30 29.75 1007 10 16.0934 0 0
10:53 am 10:53 Sunny 72 22.2 8 -13.3 8 8 SSW 17 28 29.74 1007 10 16.0934 0 0
11:53 am 11:53 Sunny 75 23.9 6 -14.4 7 7 SSW 21 33 29.72 1006 10 16.0934 0 0
12:53 pm 12:53 Sunny 77 25 1 -17.2 5 5 SSW 16 26 29.69 1005 10 16.0934 0 0
1:53 pm 13:53 Sunny 77 25 2 -16.7 5 5 WSW 17 28 29.67 1005 10 16.0934 0 0
2:53 pm 14:53 Sunny 76 24.4 -3 -19.4 4 4 SW 22 35 29.65 1004 10 16.0934 0 0
3:53 pm 15:53 Sunny 75 23.9 -3 -19.4 4 4 SSW 18 30 29.64 1004 10 16.0934 0 0
4:53 pm 16:53 Sunny 78 25.6 -10 -23.3 3 3 SW 24 39 29.62 1003 10 16.0934 0 0
5:53 pm 17:53 Sunny 77 25 -7 -21.7 3 3 SW 20 31 29.63 1003 10 16.0934 0 0
6:53 pm 18:53 Sunny 74 23.3 -2 -18.9 5 5 SW 18 30 29.62 1003 10 16.0934 0 0
7:53 pm 19:53 Clear 72 22.2 6 -14.4 7 7 SW 17 28 29.64 1004 10 16.0934 0 0
8:53 pm 20:53 Clear 70 21.1 12 -11.1 10 10 WSW 22 35 29.65 1004 10 16.0934 0 0
9:53 pm 21:53 Clear 68 20 13 -10.6 12 12 WSW 18 30 29.66 1004 10 16.0934 0 0
10:53 pm 22:53 Clear 67 19.4 17 -8.3 15 15 SW 17 28 29.68 1005 10 16.0934 0 0
11:53 pm 23:53 Clear 65 18.3 24 -4.4 21 21 SSW 13 20 29.68 1005 10 16.0934 0 0

Powered by AerisWeather